Regional Weather Roundup
Issued by NWS

Home | Current Version | Previous Version | Graphics & Text | Print | Product List | Glossary On
Versions: 1 2 3 4 5 6 7 8 9 10 11 12 13 14 15 16 17 18 19 20 21 22 23 24 25 26 27 28 29 30 31 32 33 34 35 36 37 38 39 40 41 42 43 44 45 46 47 48 49 50
000
ASUS45 KSLC 220810
RWRUT

UTAH REGIONAL WEATHER ROUNDUP
NATIONAL WEATHER SERVICE SALT LAKE CITY UT
200 AM MDT FRI AUG 22 2014

UTZ001>011-023>025-220900-

NORTHERN UTAH

CITY           SKY/WX    TMP DP  RH WIND       PRES   REMARKS
HILL AFB       CLOUDY    67  47  48 SE12      30.04R
LOGAN          CLOUDY    59  54  83 S13       30.07F
OGDEN          CLOUDY    63  51  65 W10       30.01S
PROVO AIRPORT  PTCLDY    63  46  55 CALM      30.05F
SALT LAKE CITY MOCLDY    63  53  70 SW6       30.02R
VERNAL         PTCLDY    59  47  64 CALM      30.13F
WENDOVER       MOCLDY    68  48  49 CALM      30.00F
HEBER CITY     PTCLDY    50  46  87 CALM      30.11F
WEST JORDAN    CLEAR     64  55  72 CALM      30.04F

$$

UTZ012>022-026-027-220900-

SOUTHERN UTAH

CITY           SKY/WX    TMP DP  RH WIND       PRES   REMARKS
BRYCE CANYON   CLOUDY    50  45  83 CALM      30.30S
CEDAR CITY     CLEAR     58  50  75 SW6       30.15S
MILFORD        CLEAR     61  51  70 S12       30.09F
MOAB/CYNLANDS  CLEAR     66  53  63 VRB3      30.03F
PRICE          PTCLDY    63  46  54 VRB3      30.13F
ST GEORGE      MOSUNNY   70  52  52 SE6       30.04F
KANAB          MOCLDY    63  52  67 CALM      30.18F

$$

REGIONAL REPORTS     COLORADO/ARIZONA

CITY           SKY/WX    TMP DP  RH WIND       PRES   REMARKS
CRAIG, CO      MOCLDY    54  49  83 CALM      30.20F
GRAND JUNCTION CLOUDY    65  50  58 CALM      30.08S
RIFLE          CLOUDY    63  49  60 CALM      30.14S
MONTROSE       CLOUDY    65  48  54 SE5       30.18S
CORTEZ         LGT RAIN  57  56  96 E6        30.25S
PAGE, AZ       CLOUDY    67  57  70 NE3       30.12F
GRAND CANYON     N/A    N/A N/A N/A MISG        N/A
KINGMAN        CLEAR     64  55  72 SE9       30.07F
FLAGSTAFF      CLOUDY    53  51  93 SE3       30.29S

$$

REGIONAL REPORTS    NEVADA/IDAHO/WYOMING

CITY           SKY/WX    TMP DP  RH WIND       PRES   REMARKS
LAS VEGAS, NV  PTCLDY    73  51  46 S9        29.95S
ELY            PTCLDY    60  44  55 S15       30.13S
ELKO           PTCLDY    59  44  57 CALM      30.00F
POCATELLO, ID  PTCLDY    60  52  74 SE6       30.06R
BURLEY         LGT RAIN  59  55  87 VRB7      29.99F
EVANSTON, WY   MOCLDY    52  44  74 N10       30.22R
ROCK SPRINGS   CLOUDY    55  42  61 S5        30.19F

$$


USA.gov is the U.S. government's official web portal to all federal, state and local government web resources and services.